When you browse on this site, cookies collect data to enhance your experience and personalize the content and advertising you see.
Visit our Privacy Policy to learn more. By continuing to use the site, you agree to this use of cookies and data.
  • In Romania
  • List of Countries
  • For 7 days
  • Water Temperature
  • Satellite Maps
  • Weather Map
  • Weather Widgets
  • user-avatar
    Login

    Hourly Weather Ascea

    Today, 17 July, Wednesday

    Time Temperature Precipitation Wind Pressure Humidity
    00:00 +20°C° 0 mm 3 mps 748 mmHg 70%
    01:00 +19°C° 0 mm 3 mps 748 mmHg 69%
    02:00 +19°C° 0 mm 3 mps 748 mmHg 67%
    03:00 +19°C° 0 mm 3 mps 748 mmHg 66%
    04:00 +19°C° 0 mm 3 mps 748 mmHg 65%
    05:00 +20°C° 0 mm 3 mps 748 mmHg 62%
    06:00 +23°C° 0 mm 2 mps 748 mmHg 59%
    07:00 +24°C° 0 mm 2 mps 748 mmHg 56%
    08:00 +26°C° 0 mm 2 mps 749 mmHg 50%
    09:00 +28°C° 0 mm 2 mps 749 mmHg 44%
    10:00 +31°C° 0 mm 2 mps 749 mmHg 37%
    11:00 +31°C° 0 mm 2 mps 749 mmHg 36%
    12:00 +31°C° 0 mm 3 mps 749 mmHg 36%
    13:00 +31°C° 0 mm 3 mps 749 mmHg 35%
    14:00 +31°C° 0 mm 3 mps 749 mmHg 37%
    15:00 +30°C° 0 mm 3 mps 749 mmHg 39%
    16:00 +30°C° 0 mm 3 mps 749 mmHg 42%
    17:00 +28°C° 0 mm 2 mps 748 mmHg 50%
    18:00 +26°C° 0 mm 2 mps 748 mmHg 59%
    19:00 +24°C° 0 mm 1 mps 748 mmHg 68%
    20:00 +23°C° 0 mm 1 mps 748 mmHg 68%
    21:00 +23°C° 0 mm 1 mps 748 mmHg 69%
    22:00 +22°C° 0 mm 1 mps 749 mmHg 70%
    23:00 +20°C° 0 mm 2 mps 749 mmHg 69%

    Tomorrow, 18 July, Thursday

    Time Temperature Precipitation Wind Pressure Humidity
    00:00 +20°C° 0 mm 2 mps 748 mmHg 69%
    01:00 +20°C° 0 mm 2 mps 748 mmHg 68%
    02:00 +20°C° 0 mm 2 mps 748 mmHg 70%
    03:00 +20°C° 0 mm 2 mps 748 mmHg 71%
    04:00 +19°C° 0 mm 2 mps 748 mmHg 73%
    05:00 +21°C° 0 mm 2 mps 748 mmHg 69%
    06:00 +24°C° 0 mm 2 mps 748 mmHg 65%
    07:00 +25°C° 0 mm 2 mps 748 mmHg 61%
    08:00 +26°C° 0 mm 2 mps 748 mmHg 58%
    09:00 +27°C° 0 mm 2 mps 749 mmHg 54%
    10:00 +28°C° 0 mm 2 mps 749 mmHg 51%
    11:00 +29°C° 0 mm 2 mps 749 mmHg 52%
    12:00 +29°C° 0 mm 2 mps 749 mmHg 53%
    13:00 +29°C° 0 mm 3 mps 749 mmHg 54%
    14:00 +29°C° 0.1 mm 2 mps 749 mmHg 55%
    15:00 +28°C° 0.1 mm 2 mps 749 mmHg 56%
    16:00 +28°C° 0.1 mm 1 mps 748 mmHg 57%
    17:00 +27°C° 0.1 mm 1 mps 749 mmHg 64%
    18:00 +25°C° 0.1 mm 1 mps 749 mmHg 70%
    19:00 +22°C° 0.1 mm 0 mps 749 mmHg 76%
    20:00 +23°C° 0 mm 1 mps 749 mmHg 79%
    21:00 +22°C° 0 mm 1 mps 749 mmHg 81%
    22:00 +22°C° 0 mm 1 mps 750 mmHg 83%
    23:00 +21°C° 0 mm 1 mps 750 mmHg 83%

    Day after tomorrow, 19 July, Friday

    Time Temperature Precipitation Wind Pressure Humidity
    00:00 +21°C° 0 mm 1 mps 750 mmHg 82%
    01:00 +21°C° 0 mm 1 mps 750 mmHg 81%
    02:00 +21°C° 0 mm 1 mps 750 mmHg 79%
    03:00 +21°C° 0 mm 1 mps 750 mmHg 77%
    04:00 +21°C° 0 mm 1 mps 750 mmHg 75%
    05:00 +22°C° 0 mm 1 mps 750 mmHg 70%
    06:00 +24°C° 0 mm 1 mps 750 mmHg 65%
    07:00 +23°C° 0 mm 0 mps 750 mmHg 60%
    08:00 +27°C° 0 mm 1 mps 750 mmHg 54%
    09:00 +29°C° 0 mm 1 mps 751 mmHg 48%
    10:00 +31°C° 0 mm 1 mps 751 mmHg 43%
    11:00 +31°C° 0 mm 2 mps 751 mmHg 43%
    12:00 +31°C° 0 mm 2 mps 751 mmHg 43%
    13:00 +31°C° 0 mm 3 mps 751 mmHg 44%
    14:00 +31°C° 0 mm 3 mps 751 mmHg 45%
    15:00 +30°C° 0 mm 3 mps 751 mmHg 46%
    16:00 +30°C° 0 mm 3 mps 750 mmHg 48%
    17:00 +28°C° 0 mm 2 mps 751 mmHg 55%
    18:00 +27°C° 0 mm 2 mps 751 mmHg 63%
    19:00 +25°C° 0 mm 2 mps 751 mmHg 70%
    20:00 +24°C° 0 mm 2 mps 751 mmHg 68%
    21:00 +24°C° 0 mm 1 mps 752 mmHg 66%
    22:00 +23°C° 0 mm 1 mps 752 mmHg 63%
    23:00 +23°C° 0 mm 1 mps 752 mmHg 61%

    20 July, Saturday

    Time Temperature Precipitation Wind Pressure Humidity
    00:00 +23°C° 0 mm 1 mps 752 mmHg 59%
    01:00 +23°C° 0 mm 1 mps 751 mmHg 57%
    02:00 +22°C° 0 mm 1 mps 751 mmHg 58%
    03:00 +22°C° 0 mm 1 mps 751 mmHg 59%
    04:00 +22°C° 0 mm 1 mps 751 mmHg 60%
    05:00 +24°C° 0 mm 1 mps 751 mmHg 57%
    06:00 +23°C° 0 mm 0 mps 752 mmHg 54%
    07:00 +25°C° 0 mm 0 mps 752 mmHg 51%
    08:00 +29°C° 0 mm 1 mps 752 mmHg 47%
    09:00 +30°C° 0 mm 1 mps 752 mmHg 44%
    10:00 +32°C° 0 mm 1 mps 753 mmHg 40%
    11:00 +32°C° 0 mm 2 mps 753 mmHg 40%
    12:00 +32°C° 0 mm 2 mps 753 mmHg 40%
    13:00 +34°C° 0 mm 2 mps 753 mmHg 40%
    14:00 +33°C° 0 mm 3 mps 752 mmHg 42%
    15:00 +33°C° 0 mm 3 mps 752 mmHg 44%
    16:00 +31°C° 0 mm 3 mps 752 mmHg 46%
    17:00 +30°C° 0 mm 2 mps 752 mmHg 53%
    18:00 +28°C° 0 mm 2 mps 752 mmHg 61%
    19:00 +26°C° 0 mm 2 mps 752 mmHg 69%
    20:00 +26°C° 0 mm 2 mps 753 mmHg 67%
    21:00 +25°C° 0 mm 2 mps 753 mmHg 66%
    22:00 +24°C° 0 mm 2 mps 753 mmHg 64%
    23:00 +24°C° 0 mm 1 mps 753 mmHg 63%

    21 July, Sunday

    Time Temperature Precipitation Wind Pressure Humidity
    00:00 +24°C° 0 mm 1 mps 753 mmHg 62%
    01:00 +24°C° 0 mm 1 mps 753 mmHg 61%
    02:00 +24°C° 0 mm 1 mps 753 mmHg 61%
    03:00 +23°C° 0 mm 1 mps 752 mmHg 62%
    04:00 +23°C° 0 mm 1 mps 752 mmHg 62%
    05:00 +25°C° 0 mm 1 mps 753 mmHg 58%
    06:00 +26°C° 0 mm 1 mps 753 mmHg 54%
    07:00 +28°C° 0 mm 1 mps 753 mmHg 50%
    08:00 +30°C° 0 mm 1 mps 753 mmHg 47%
    09:00 +31°C° 0 mm 2 mps 754 mmHg 44%
    10:00 +34°C° 0 mm 2 mps 754 mmHg 40%
    11:00 +34°C° 0 mm 2 mps 754 mmHg 40%
    12:00 +35°C° 0 mm 3 mps 754 mmHg 41%
    13:00 +35°C° 0 mm 3 mps 754 mmHg 41%
    14:00 +34°C° 0 mm 3 mps 753 mmHg 43%
    15:00 +34°C° 0 mm 3 mps 753 mmHg 44%
    16:00 +33°C° 0 mm 3 mps 753 mmHg 45%
    17:00 +30°C° 0 mm 2 mps 753 mmHg 52%
    18:00 +29°C° 0 mm 2 mps 753 mmHg 59%
    19:00 +27°C° 0 mm 2 mps 753 mmHg 66%
    20:00 +26°C° 0 mm 1 mps 753 mmHg 65%
    21:00 +26°C° 0 mm 1 mps 753 mmHg 65%
    22:00 +25°C° 0 mm 1 mps 754 mmHg 64%
    23:00 +25°C° 0 mm 1 mps 753 mmHg 63%

    22 July, Monday

    Time Temperature Precipitation Wind Pressure Humidity
    00:00 +25°C° 0 mm 1 mps 753 mmHg 61%
    01:00 +25°C° 0 mm 1 mps 753 mmHg 60%
    02:00 +24°C° 0 mm 1 mps 753 mmHg 59%
    03:00 +24°C° 0 mm 1 mps 753 mmHg 58%
    04:00 +24°C° 0 mm 1 mps 753 mmHg 57%
    05:00 +26°C° 0 mm 1 mps 753 mmHg 54%
    06:00 +27°C° 0 mm 1 mps 753 mmHg 50%
    07:00 +29°C° 0 mm 1 mps 753 mmHg 47%
    08:00 +30°C° 0 mm 1 mps 753 mmHg 44%
    09:00 +32°C° 0 mm 1 mps 753 mmHg 41%
    10:00 +35°C° 0 mm 2 mps 753 mmHg 38%
    11:00 +35°C° 0 mm 2 mps 753 mmHg 39%
    12:00 +35°C° 0 mm 2 mps 753 mmHg 40%
    13:00 +35°C° 0 mm 2 mps 752 mmHg 41%
    14:00 +34°C° 0 mm 2 mps 752 mmHg 42%
    15:00 +34°C° 0 mm 2 mps 752 mmHg 43%
    16:00 +34°C° 0 mm 2 mps 752 mmHg 44%
    17:00 +31°C° 0 mm 2 mps 752 mmHg 52%
    18:00 +29°C° 0 mm 2 mps 751 mmHg 59%
    19:00 +27°C° 0 mm 1 mps 751 mmHg 66%
    20:00 +26°C° 0 mm 1 mps 751 mmHg 65%
    21:00 +26°C° 0 mm 1 mps 751 mmHg 64%
    22:00 +25°C° 0 mm 1 mps 752 mmHg 63%
    23:00 +25°C° 0 mm 1 mps 751 mmHg 63%
    Show more